Погода в Солнечногорске

Россия / Московская область     56°11′06″N   36°58′39″E
темп.,
°C
ветер,
м/с
пор.,
м/с
влажн.,
%
обл.,
%
осадки,
мм/ч
давл.,
гПа
погр.,
м
16 апреля, пт
пт1600:00+8св61488100 0.0 1019552
03:00+7всв6139098 0.0 1019524
06:00+6всв51391100 0.0 1020496
09:00+9всв5982100 0.3 1021525
12:00+13всв5862100 0.2 1021836
15:00+15всв6957100 0.2 10211187
18:00+13всв61065100 0.0 10201066
21:00+9всв61381100 0.0 1022677
17 апреля, сб
сб1700:00+8всв61387100 0.1 1022621
03:00+7всв4118887 0.2 1023457
06:00+6всв4118862 0.1 1023422
09:00+8всв5976100 0.1 1023516
12:00+13всв695994 0.0 1023926
15:00+15всв6105189 0.0 10221270
18:00+13всв6115692 0.0 10221127
21:00+9всв6145858 0.0 1022733
18 апреля, вс
вс1800:00+7всв5146190 0.0 1023629
03:00+6всв51267100 0.0 1023541
06:00+5всв41169100 0.0 1023604
09:00+7всв51064100 0.0 1023722
12:00+9вюв51061100 0.1 10231208
15:00+9вюв51063100 0.6 10241391
18:00+7вюв41077100 0.3 10251039
21:00+6вюв31083100 0.4 1025530
19 апреля, пн
пн1900:00+6в41084100 0.0 10251042
03:00+6всв3883100 0.1 1025785
06:00+6всв5988100 0.1 1025978
09:00+5в4989100 0.2 1026808
12:00+5в51084100 0.1 1026651
15:00+7в687485 0.1 1026824
18:00+6в5977100 0.0 1025846
21:00+5в51382100 0.0 1025835
20 апреля, вт
вт2000:00+6в51372100 0.0 1023847
03:00+4в6147199 0.0 1022619
06:00+3в61677100 0.0 1020622
09:00+5в71572100 0.0 1018739
12:00+6в71673100 0.0 1015937
15:00+7в81882100 1.1 10111334
18:00+6вюв92088100 4.4 10081409
21:00+6вюв92189100 6.6 10051391